sat.trackr.live / text

‹ back to catalog

STARLINK-5518

NORAD 56469 · 2023-064X

PAYLOAD ACTIVE UNKNOWN

§ Identity

Operator
Country
US
Launch date
2023-05-10
Launch site
AFWTR
Launch vehicle
Mass (kg)
RCS (m²)

Purposes: comms

External: N2YO · Heavens-Above · Gunter

§ Orbital elements

Epoch: 2026-05-25T03:00:03.989088Z

Period
96.11 min
Inclination
69.9988°
Eccentricity
0.0002909
Mean motion
14.98330234 rev/d
Perigee alt
570.0 km
Apogee alt
574.1 km
Semi-major
6,950.2 km
B*
-8.6420e-6
RAAN
291.9313°
Arg perigee
268.6936°
Mean anomaly
91.3890°
Rev number
16,718

§ Raw data

STARLINK-55181 56469U 23064X   26145.12504617 -.00000196  00000+0 -86420-5 0  99912 56469  69.9988 291.9313 0002909 268.6936  91.3890 14.98330234167189

JSON: /api/v1/satellites/56469 · /tle

For live sub-satellite position, see the globe view (requires WebGL).

§ Visibility from observer

Set your observer location to see the next 7 days of passes ≥ 10°. The values pass through the URL so the page stays shareable.

No JS? Fill the form by hand. The geolocation button needs JavaScript.